Time,TemperatureF,DewpointF,PressureIn,WindDirection,WindDirectionDegrees,WindSpeedMPH,WindSpeedGustMPH,Humidity,HourlyPrecipIn,Conditions,Clouds,dailyrainin,SoftwareType,DateUTC
2013-09-05 00:00:00,73.8,61.3,30.12,NE,54,0.0,0.0,65,0.00,SCT,SCT,0.00,WeatherDisplay:10.37,2013-09-05 05:00:00,
2013-09-05 00:06:00,73.4,61.3,30.12,NE,37,0.0,0.0,66,0.00,FEW,FEW,0.00,WeatherDisplay:10.37,2013-09-05 05:06:00,
2013-09-05 00:12:00,73.3,61.2,30.12,ENE,76,0.0,0.0,66,0.00,FEW,FEW,0.00,WeatherDisplay:10.37,2013-09-05 05:12:00,
2013-09-05 00:18:00,73.3,61.6,30.12,East,93,0.0,0.0,67,0.00,FEW,FEW,0.00,WeatherDisplay:10.37,2013-09-05 05:18:00,
2013-09-05 00:24:00,73.1,61.9,30.12,West,267,0.0,0.0,68,0.00,FEW,FEW,0.00,WeatherDisplay:10.37,2013-09-05 05:24:00,
2013-09-05 00:30:00,72.7,61.5,30.12,WNW,282,0.0,0.0,68,0.00,FEW,FEW,0.00,WeatherDisplay:10.37,2013-09-05 05:30:00,
2013-09-05 00:36:00,72.5,61.7,30.12,West,270,0.0,0.0,69,0.00,FEW,FEW,0.00,WeatherDisplay:10.37,2013-09-05 05:36:00,
2013-09-05 00:42:00,72.4,61.6,30.12,NNE,32,0.0,0.0,69,0.00,FEW,FEW,0.00,WeatherDisplay:10.37,2013-09-05 05:42:00,
2013-09-05 00:48:00,72.2,61.8,30.12,East,95,0.0,0.0,70,0.00,FEW,FEW,0.00,WeatherDisplay:10.37,2013-09-05 05:48:00,
2013-09-05 00:54:00,71.9,61.5,30.12,ENE,62,0.0,0.0,70,0.00,FEW,FEW,0.00,WeatherDisplay:10.37,2013-09-05 05:54:00,
2013-09-05 01:00:00,71.6,61.3,30.12,NE,34,0.0,0.0,70,0.00,FEW,FEW,0.00,WeatherDisplay:10.37,2013-09-05 06:00:00,
2013-09-05 01:06:00,71.5,61.6,30.12,NNE,21,0.0,0.0,71,0.00,SCT,SCT,0.00,WeatherDisplay:10.37,2013-09-05 06:06:00,
2013-09-05 01:12:00,71.3,61.5,30.12,NE,37,0.0,0.0,71,0.00,SCT,SCT,0.00,WeatherDisplay:10.37,2013-09-05 06:12:00,
2013-09-05 01:18:00,71.1,61.6,30.12,WNW,298,0.0,0.0,72,0.00,SCT,SCT,0.00,WeatherDisplay:10.37,2013-09-05 06:18:00,
2013-09-05 01:24:00,71.1,61.6,30.12,East,86,0.0,0.0,72,0.00,SCT,SCT,0.00,WeatherDisplay:10.37,2013-09-05 06:24:00,
2013-09-05 01:30:00,71.1,61.6,30.12,ESE,108,0.0,0.0,72,0.00,SCT,SCT,0.00,WeatherDisplay:10.37,2013-09-05 06:30:00,
2013-09-05 01:36:00,71.1,61.6,30.12,ENE,72,0.0,0.0,72,0.00,SCT,SCT,0.00,WeatherDisplay:10.37,2013-09-05 06:36:00,
2013-09-05 01:42:00,71.1,61.6,30.12,North,352,0.0,0.0,72,0.00,SCT,SCT,0.00,WeatherDisplay:10.37,2013-09-05 06:42:00,
2013-09-05 01:48:00,71.3,61.8,30.12,SSE,159,0.0,0.0,72,0.00,SCT,SCT,0.00,WeatherDisplay:10.37,2013-09-05 06:48:00,
2013-09-05 01:54:00,71.3,61.8,30.12,ESE,114,0.0,0.0,72,0.00,SCT,SCT,0.00,WeatherDisplay:10.37,2013-09-05 06:54:00,
2013-09-05 02:00:00,71.5,62.0,30.12,East,84,0.0,4.0,72,0.00,SCT,SCT,0.00,WeatherDisplay:10.37,2013-09-05 07:00:00,
2013-09-05 02:06:00,71.8,61.8,30.12,SE,139,2.0,5.0,71,0.00,FEW,FEW,0.00,WeatherDisplay:10.37,2013-09-05 07:06:00,
2013-09-05 02:12:00,71.5,62.0,30.12,ESE,108,1.0,7.0,72,0.00,FEW,FEW,0.00,WeatherDisplay:10.37,2013-09-05 07:12:00,
2013-09-05 02:18:00,71.3,61.8,30.12,East,92,0.0,2.0,72,0.00,FEW,FEW,0.00,WeatherDisplay:10.37,2013-09-05 07:18:00,
2013-09-05 02:24:00,71.3,62.2,30.12,ESE,109,1.0,3.0,73,0.00,FEW,FEW,0.00,WeatherDisplay:10.37,2013-09-05 07:24:00,
2013-09-05 02:30:00,71.1,62.0,30.13,SE,128,1.0,3.0,73,0.00,FEW,FEW,0.00,WeatherDisplay:10.37,2013-09-05 07:30:00,
2013-09-05 02:36:00,70.9,61.8,30.13,SE,133,0.0,0.0,73,0.00,FEW,FEW,0.00,WeatherDisplay:10.37,2013-09-05 07:36:00,
2013-09-05 02:42:00,70.7,61.6,30.12,NE,53,0.0,0.0,73,0.00,FEW,FEW,0.00,WeatherDisplay:10.37,2013-09-05 07:42:00,
2013-09-05 02:48:00,70.7,61.6,30.12,ESE,122,1.0,3.0,73,0.00,FEW,FEW,0.00,WeatherDisplay:10.37,2013-09-05 07:48:00,
2013-09-05 02:54:00,70.6,61.9,30.12,ESE,108,2.0,3.0,74,0.00,FEW,FEW,0.00,WeatherDisplay:10.37,2013-09-05 07:54:00,
2013-09-05 03:00:00,70.7,62.0,30.12,ESE,111,1.0,4.0,74,0.00,FEW,FEW,0.00,WeatherDisplay:10.37,2013-09-05 08:00:00,
2013-09-05 03:06:00,70.6,61.9,30.12,ESE,112,1.0,2.0,74,0.00,FEW,FEW,0.00,WeatherDisplay:10.37,2013-09-05 08:06:00,
2013-09-05 03:12:00,70.5,61.8,30.12,ESE,120,0.0,0.0,74,0.00,FEW,FEW,0.00,WeatherDisplay:10.37,2013-09-05 08:12:00,
2013-09-05 03:18:00,70.4,62.1,30.12,ESE,117,2.0,5.0,75,0.00,FEW,FEW,0.00,WeatherDisplay:10.37,2013-09-05 08:18:00,
2013-09-05 03:24:00,70.0,61.7,30.12,SE,130,2.0,5.0,75,0.00,FEW,FEW,0.00,WeatherDisplay:10.37,2013-09-05 08:24:00,
2013-09-05 03:30:00,70.0,62.0,30.12,SE,143,1.0,3.0,76,0.00,FEW,FEW,0.00,WeatherDisplay:10.37,2013-09-05 08:30:00,
2013-09-05 03:36:00,70.2,62.2,30.12,SSE,162,3.0,5.0,76,0.00,FEW,FEW,0.00,WeatherDisplay:10.37,2013-09-05 08:36:00,
2013-09-05 03:42:00,70.0,62.0,30.12,SE,130,0.0,0.0,76,0.00,FEW,FEW,0.00,WeatherDisplay:10.37,2013-09-05 08:42:00,
2013-09-05 03:48:00,69.7,61.8,30.12,ESE,103,1.0,3.0,76,0.00,FEW,FEW,0.00,WeatherDisplay:10.37,2013-09-05 08:48:00,
2013-09-05 03:54:00,69.5,61.9,30.11,ESE,113,0.0,3.0,77,0.00,FEW,FEW,0.00,WeatherDisplay:10.37,2013-09-05 08:54:00,
2013-09-05 04:00:00,69.3,62.1,30.12,ESE,116,1.0,2.0,78,0.00,FEW,FEW,0.00,WeatherDisplay:10.37,2013-09-05 09:00:00,
2013-09-05 04:06:00,68.9,61.7,30.12,East,95,0.0,0.0,78,0.00,FEW,FEW,0.00,WeatherDisplay:10.37,2013-09-05 09:06:00,
2013-09-05 04:12:00,68.8,62.0,30.12,ESE,102,0.0,0.0,79,0.00,FEW,FEW,0.00,WeatherDisplay:10.37,2013-09-05 09:12:00,
2013-09-05 04:18:00,68.4,61.6,30.12,East,91,1.0,2.0,79,0.00,FEW,FEW,0.00,WeatherDisplay:10.37,2013-09-05 09:18:00,
2013-09-05 04:24:00,68.4,61.9,30.12,ESE,107,0.0,0.0,80,0.00,FEW,FEW,0.00,WeatherDisplay:10.37,2013-09-05 09:24:00,
2013-09-05 04:30:00,68.0,61.9,30.12,East,91,0.0,0.0,81,0.00,FEW,FEW,0.00,WeatherDisplay:10.37,2013-09-05 09:30:00,
2013-09-05 04:36:00,67.9,61.8,30.12,East,99,0.0,4.0,81,0.00,FEW,FEW,0.00,WeatherDisplay:10.37,2013-09-05 09:36:00,
2013-09-05 04:42:00,67.9,61.8,30.12,ENE,78,0.0,0.0,81,0.00,FEW,FEW,0.00,WeatherDisplay:10.37,2013-09-05 09:42:00,
2013-09-05 04:48:00,67.5,61.8,30.12,East,79,0.0,0.0,82,0.00,FEW,FEW,0.00,WeatherDisplay:10.37,2013-09-05 09:48:00,
2013-09-05 04:54:00,67.3,61.9,30.12,ESE,103,0.0,0.0,83,0.00,FEW,FEW,0.00,WeatherDisplay:10.37,2013-09-05 09:54:00,
2013-09-05 05:00:00,67.3,61.9,30.12,ESE,108,0.0,0.0,83,0.00,FEW,FEW,0.00,WeatherDisplay:10.37,2013-09-05 10:00:00,
2013-09-05 05:06:00,67.1,61.7,30.12,East,84,0.0,0.0,83,0.00,CLR,CLR,0.00,WeatherDisplay:10.37,2013-09-05 10:06:00,
2013-09-05 05:12:00,66.8,61.4,30.12,NE,56,0.0,0.0,83,0.00,CLR,CLR,0.00,WeatherDisplay:10.37,2013-09-05 10:12:00,
2013-09-05 05:18:00,66.6,61.6,30.12,North,354,0.0,0.0,84,0.00,CLR,CLR,0.00,WeatherDisplay:10.37,2013-09-05 10:18:00,
2013-09-05 05:24:00,66.6,61.6,30.12,WNW,296,0.0,0.0,84,0.00,CLR,CLR,0.00,WeatherDisplay:10.37,2013-09-05 10:24:00,
2013-09-05 05:30:00,66.5,61.5,30.12,WSW,255,0.0,0.0,84,0.00,CLR,CLR,0.00,WeatherDisplay:10.37,2013-09-05 10:30:00,
2013-09-05 05:36:00,66.2,61.5,30.12,South,172,0.0,0.0,85,0.00,CLR,CLR,0.00,WeatherDisplay:10.37,2013-09-05 10:36:00,
2013-09-05 05:42:00,66.2,61.5,30.12,East,91,0.0,0.0,85,0.00,CLR,CLR,0.00,WeatherDisplay:10.37,2013-09-05 10:42:00,
2013-09-05 05:48:00,66.1,61.8,30.13,ESE,115,0.0,0.0,86,0.00,CLR,CLR,0.00,WeatherDisplay:10.37,2013-09-05 10:48:00,
2013-09-05 05:54:00,66.1,61.7,30.13,SW,222,0.0,0.0,86,0.00,CLR,CLR,0.00,WeatherDisplay:10.37,2013-09-05 10:54:00,
2013-09-05 06:00:00,65.9,61.9,30.13,SW,230,0.0,0.0,87,0.00,CLR,CLR,0.00,WeatherDisplay:10.37,2013-09-05 11:00:00,
2013-09-05 06:06:00,65.7,61.7,30.13,South,186,1.0,3.0,87,0.00,CLR,CLR,0.00,WeatherDisplay:10.37,2013-09-05 11:06:00,
2013-09-05 06:12:00,65.9,61.9,30.13,South,177,2.0,3.0,87,0.00,CLR,CLR,0.00,WeatherDisplay:10.37,2013-09-05 11:12:00,
2013-09-05 06:18:00,66.1,61.8,30.13,South,187,2.0,3.0,86,0.00,CLR,CLR,0.00,WeatherDisplay:10.37,2013-09-05 11:18:00,
2013-09-05 06:24:00,66.2,61.8,30.13,South,169,2.0,3.0,86,0.00,CLR,CLR,0.00,WeatherDisplay:10.37,2013-09-05 11:24:00,
2013-09-05 06:30:00,66.2,61.8,30.13,SE,135,0.0,0.0,86,0.00,CLR,CLR,0.00,WeatherDisplay:10.37,2013-09-05 11:30:00,
2013-09-05 06:36:00,66.1,61.7,30.13,SSE,167,0.0,0.0,86,0.00,CLR,CLR,0.00,WeatherDisplay:10.37,2013-09-05 11:36:00,
2013-09-05 06:42:00,66.1,61.7,30.13,SSE,159,0.0,0.0,86,0.00,CLR,CLR,0.00,WeatherDisplay:10.37,2013-09-05 11:42:00,
2013-09-05 06:48:00,65.7,61.4,30.13,East,101,0.0,0.0,86,0.00,CLR,CLR,0.00,WeatherDisplay:10.37,2013-09-05 11:48:00,
2013-09-05 06:54:00,65.7,61.7,30.13,East,90,0.0,0.0,87,0.00,CLR,CLR,0.00,WeatherDisplay:10.37,2013-09-05 11:54:00,
2013-09-05 07:00:00,65.3,61.6,30.13,East,80,0.0,0.0,88,0.00,CLR,CLR,0.00,WeatherDisplay:10.37,2013-09-05 12:00:00,
2013-09-05 07:06:00,65.2,61.5,30.13,ENE,68,0.0,0.0,88,0.00,SCT,SCT,0.00,WeatherDisplay:10.37,2013-09-05 12:06:00,
2013-09-05 07:12:00,65.0,61.6,30.14,East,84,0.0,0.0,89,0.00,SCT,SCT,0.00,WeatherDisplay:10.37,2013-09-05 12:12:00,
2013-09-05 07:18:00,65.0,61.6,30.14,East,90,0.0,0.0,89,0.00,SCT,SCT,0.00,WeatherDisplay:10.37,2013-09-05 12:18:00,
2013-09-05 07:24:00,65.0,61.6,30.14,SSE,168,0.0,0.0,89,0.00,SCT,SCT,0.00,WeatherDisplay:10.37,2013-09-05 12:24:00,
2013-09-05 07:30:00,64.8,61.8,30.15,SW,223,0.0,0.0,90,0.00,SCT,SCT,0.00,WeatherDisplay:10.37,2013-09-05 12:30:00,
2013-09-05 07:36:00,64.8,61.8,30.15,East,87,0.0,0.0,90,0.00,SCT,SCT,0.00,WeatherDisplay:10.37,2013-09-05 12:36:00,
2013-09-05 07:42:00,64.8,61.8,30.15,East,90,0.0,0.0,90,0.00,SCT,SCT,0.00,WeatherDisplay:10.37,2013-09-05 12:42:00,
2013-09-05 07:48:00,65.0,62.0,30.15,ESE,121,0.0,0.0,90,0.00,SCT,SCT,0.00,WeatherDisplay:10.37,2013-09-05 12:48:00,
2013-09-05 07:54:00,65.0,62.3,30.15,SE,146,0.0,0.0,91,0.00,SCT,SCT,0.00,WeatherDisplay:10.37,2013-09-05 12:54:00,
2013-09-05 08:00:00,65.2,62.5,30.15,South,172,0.0,0.0,91,0.00,SCT,SCT,0.00,WeatherDisplay:10.37,2013-09-05 13:00:00,
2013-09-05 08:06:00,65.9,62.5,30.14,SSW,208,0.0,0.0,89,0.00,SCT,SCT,0.00,WeatherDisplay:10.37,2013-09-05 13:06:00,
2013-09-05 08:12:00,66.4,62.7,30.14,South,171,1.0,3.0,88,0.00,SCT,SCT,0.00,WeatherDisplay:10.37,2013-09-05 13:12:00,
2013-09-05 08:18:00,67.1,62.7,30.14,South,173,1.0,5.0,86,0.00,SCT,SCT,0.00,WeatherDisplay:10.37,2013-09-05 13:18:00,
2013-09-05 08:24:00,67.8,62.8,30.15,SSW,193,2.0,3.0,84,0.00,SCT,SCT,0.00,WeatherDisplay:10.37,2013-09-05 13:24:00,
2013-09-05 08:30:00,68.0,62.6,30.15,South,169,1.0,5.0,83,0.00,SCT,SCT,0.00,WeatherDisplay:10.37,2013-09-05 13:30:00,
2013-09-05 08:36:00,68.8,63.1,30.15,South,173,3.0,5.0,82,0.00,SCT,SCT,0.00,WeatherDisplay:10.37,2013-09-05 13:36:00,
2013-09-05 08:42:00,69.5,63.4,30.15,South,175,3.0,5.0,81,0.00,SCT,SCT,0.00,WeatherDisplay:10.37,2013-09-05 13:42:00,
2013-09-05 08:48:00,70.2,63.4,30.15,South,185,5.0,6.0,79,0.00,SCT,SCT,0.00,WeatherDisplay:10.37,2013-09-05 13:48:00,
2013-09-05 08:54:00,70.7,63.5,30.15,South,188,3.0,6.0,78,0.00,SCT,SCT,0.00,WeatherDisplay:10.37,2013-09-05 13:54:00,
2013-09-05 09:00:00,71.3,63.7,30.15,SSE,153,0.0,4.0,77,0.00,SCT,SCT,0.00,WeatherDisplay:10.37,2013-09-05 14:00:00,
2013-09-05 09:06:00,71.8,63.8,30.15,SSE,147,0.0,3.0,76,0.00,BKN,BKN,0.00,WeatherDisplay:10.37,2013-09-05 14:06:00,
2013-09-05 09:12:00,72.5,64.1,30.15,SE,144,3.0,5.0,75,0.00,BKN,BKN,0.00,WeatherDisplay:10.37,2013-09-05 14:12:00,
2013-09-05 09:18:00,73.4,65.0,30.15,ESE,104,0.0,4.0,75,0.00,BKN,BKN,0.00,WeatherDisplay:10.37,2013-09-05 14:18:00,
2013-09-05 09:24:00,74.0,65.1,30.16,SE,127,2.0,5.0,74,0.00,BKN,BKN,0.00,WeatherDisplay:10.37,2013-09-05 14:24:00,
2013-09-05 09:30:00,74.5,64.8,30.16,SE,144,2.0,5.0,72,0.00,BKN,BKN,0.00,WeatherDisplay:10.37,2013-09-05 14:30:00,
2013-09-05 09:36:00,74.7,65.1,30.16,SE,144,1.0,3.0,72,0.00,BKN,BKN,0.00,WeatherDisplay:10.37,2013-09-05 14:36:00,
2013-09-05 09:42:00,75.1,65.5,30.16,ESE,110,0.0,0.0,72,0.00,BKN,BKN,0.00,WeatherDisplay:10.37,2013-09-05 14:42:00,
2013-09-05 09:48:00,75.8,65.3,30.16,East,101,0.0,0.0,70,0.00,BKN,BKN,0.00,WeatherDisplay:10.37,2013-09-05 14:48:00,
2013-09-05 09:54:00,76.3,65.3,30.16,SE,131,1.0,2.0,69,0.00,BKN,BKN,0.00,WeatherDisplay:10.37,2013-09-05 14:54:00,
2013-09-05 10:00:00,76.7,64.9,30.16,SSE,148,3.0,5.0,67,0.00,BKN,BKN,0.00,WeatherDisplay:10.37,2013-09-05 15:00:00,
2013-09-05 10:06:00,77.3,65.4,30.16,SE,138,2.0,4.0,67,0.00,BKN,BKN,0.00,WeatherDisplay:10.37,2013-09-05 15:06:00,
2013-09-05 10:12:00,78.5,65.7,30.16,ESE,112,2.0,5.0,65,0.00,BKN,BKN,0.00,WeatherDisplay:10.37,2013-09-05 15:12:00,
2013-09-05 10:18:00,78.9,65.7,30.17,ESE,104,5.0,5.0,64,0.00,BKN,BKN,0.00,WeatherDisplay:10.37,2013-09-05 15:18:00,
2013-09-05 10:24:00,79.0,65.7,30.17,ESE,118,2.0,3.0,64,0.00,BKN,BKN,0.00,WeatherDisplay:10.37,2013-09-05 15:24:00,
2013-09-05 10:30:00,79.7,66.9,30.17,South,190,5.0,5.0,65,0.00,BKN,BKN,0.00,WeatherDisplay:10.37,2013-09-05 15:30:00,
2013-09-05 10:36:00,80.3,65.6,30.17,SE,128,3.0,6.0,61,0.00,BKN,BKN,0.00,WeatherDisplay:10.37,2013-09-05 15:36:00,
2013-09-05 10:42:00,80.8,66.1,30.17,SE,135,3.0,5.0,61,0.00,BKN,BKN,0.00,WeatherDisplay:10.37,2013-09-05 15:42:00,
2013-09-05 10:48:00,81.5,66.7,30.17,East,90,3.0,7.0,61,0.00,BKN,BKN,0.00,WeatherDisplay:10.37,2013-09-05 15:48:00,
2013-09-05 10:54:00,81.7,66.4,30.17,East,88,5.0,5.0,60,0.00,BKN,BKN,0.00,WeatherDisplay:10.37,2013-09-05 15:54:00,
2013-09-05 11:00:00,81.9,66.1,30.17,SE,143,5.0,5.0,59,0.00,BKN,BKN,0.00,WeatherDisplay:10.37,2013-09-05 16:00:00,
2013-09-05 11:06:00,82.8,66.5,30.17,ESE,108,5.0,6.0,58,0.00,FEW,FEW,0.00,WeatherDisplay:10.37,2013-09-05 16:06:00,
2013-09-05 11:12:00,83.0,66.7,30.17,ESE,118,5.0,7.0,58,0.00,FEW,FEW,0.00,WeatherDisplay:10.37,2013-09-05 16:12:00,
2013-09-05 11:18:00,83.3,66.9,30.17,SE,141,3.0,6.0,58,0.00,FEW,FEW,0.00,WeatherDisplay:10.37,2013-09-05 16:18:00,
2013-09-05 11:24:00,83.2,66.4,30.17,SE,144,2.0,6.0,57,0.00,FEW,FEW,0.00,WeatherDisplay:10.37,2013-09-05 16:24:00,
2013-09-05 11:30:00,84.2,66.3,30.17,South,171,5.0,8.0,55,0.00,FEW,FEW,0.00,WeatherDisplay:10.37,2013-09-05 16:30:00,
2013-09-05 11:36:00,83.6,66.2,30.17,SSE,152,3.0,7.0,56,0.00,FEW,FEW,0.00,WeatherDisplay:10.37,2013-09-05 16:36:00,
2013-09-05 11:42:00,84.1,66.7,30.16,SSE,147,5.0,7.0,56,0.00,FEW,FEW,0.00,WeatherDisplay:10.37,2013-09-05 16:42:00,
2013-09-05 11:48:00,84.8,67.4,30.16,ESE,118,5.0,8.0,56,0.00,FEW,FEW,0.00,WeatherDisplay:10.37,2013-09-05 16:48:00,
2013-09-05 11:54:00,85.2,67.2,30.16,SSE,154,5.0,8.0,55,0.00,FEW,FEW,0.00,WeatherDisplay:10.37,2013-09-05 16:54:00,
2013-09-05 12:00:00,85.8,66.7,30.16,SSE,151,3.0,7.0,53,0.00,FEW,FEW,0.00,WeatherDisplay:10.37,2013-09-05 17:00:00,
2013-09-05 12:06:00,86.4,67.3,30.16,ESE,119,5.0,7.0,53,0.00,FEW,FEW,0.00,WeatherDisplay:10.37,2013-09-05 17:06:00,
2013-09-05 12:12:00,86.4,66.7,30.16,SE,136,6.0,7.0,52,0.00,FEW,FEW,0.00,WeatherDisplay:10.37,2013-09-05 17:12:00,
2013-09-05 12:18:00,87.5,67.1,30.16,East,94,6.0,8.0,51,0.00,FEW,FEW,0.00,WeatherDisplay:10.37,2013-09-05 17:18:00,
2013-09-05 12:24:00,87.8,67.4,30.16,East,82,3.0,5.0,51,0.00,FEW,FEW,0.00,WeatherDisplay:10.37,2013-09-05 17:24:00,
2013-09-05 12:30:00,88.6,67.6,30.16,ENE,57,5.0,7.0,50,0.00,FEW,FEW,0.00,WeatherDisplay:10.37,2013-09-05 17:30:00,
2013-09-05 12:36:00,88.4,66.8,30.16,ESE,114,3.0,6.0,49,0.00,FEW,FEW,0.00,WeatherDisplay:10.37,2013-09-05 17:36:00,
2013-09-05 12:42:00,88.5,66.3,30.16,SSE,148,5.0,7.0,48,0.00,FEW,FEW,0.00,WeatherDisplay:10.37,2013-09-05 17:42:00,
2013-09-05 12:48:00,88.7,67.0,30.15,ESE,116,7.0,7.0,49,0.00,FEW,FEW,0.00,WeatherDisplay:10.37,2013-09-05 17:48:00,
2013-09-05 12:54:00,89.5,67.3,30.15,East,85,3.0,6.0,48,0.00,FEW,FEW,0.00,WeatherDisplay:10.37,2013-09-05 17:54:00,
2013-09-05 13:00:00,89.6,66.7,30.15,South,175,5.0,7.0,47,0.00,FEW,FEW,0.00,WeatherDisplay:10.37,2013-09-05 18:00:00,
2013-09-05 13:06:00,89.6,66.7,30.14,SE,135,3.0,7.0,47,0.00,SCT,SCT,0.00,WeatherDisplay:10.37,2013-09-05 18:06:00,
2013-09-05 13:12:00,89.6,65.4,30.14,East,84,7.0,8.0,45,0.00,SCT,SCT,0.00,WeatherDisplay:10.37,2013-09-05 18:12:00,
2013-09-05 13:18:00,90.0,65.8,30.14,East,86,6.0,8.0,45,0.00,SCT,SCT,0.00,WeatherDisplay:10.37,2013-09-05 18:18:00,
2013-09-05 13:24:00,90.4,66.2,30.14,ENE,75,7.0,9.0,45,0.00,SCT,SCT,0.00,WeatherDisplay:10.37,2013-09-05 18:24:00,
2013-09-05 13:30:00,90.0,65.8,30.13,ENE,69,5.0,7.0,45,0.00,SCT,SCT,0.00,WeatherDisplay:10.37,2013-09-05 18:30:00,
2013-09-05 13:36:00,91.1,66.1,30.13,SE,135,5.0,7.0,44,0.00,SCT,SCT,0.00,WeatherDisplay:10.37,2013-09-05 18:36:00,
2013-09-05 13:42:00,92.0,68.2,30.13,SSE,155,3.0,5.0,46,0.00,SCT,SCT,0.00,WeatherDisplay:10.37,2013-09-05 18:42:00,
2013-09-05 13:48:00,90.8,65.2,30.13,SSE,150,5.0,7.0,43,0.00,SCT,SCT,0.00,WeatherDisplay:10.37,2013-09-05 18:48:00,
2013-09-05 13:54:00,91.4,67.0,30.13,East,86,6.0,10.0,45,0.00,SCT,SCT,0.00,WeatherDisplay:10.37,2013-09-05 18:54:00,
2013-09-05 14:00:00,92.4,66.6,30.13,East,94,3.0,7.0,43,0.00,SCT,SCT,0.00,WeatherDisplay:10.37,2013-09-05 19:00:00,
2013-09-05 14:06:00,91.5,66.6,30.12,NE,44,6.0,12.0,44,0.00,SCT,SCT,0.00,WeatherDisplay:10.37,2013-09-05 19:06:00,
2013-09-05 14:12:00,92.2,67.1,30.12,ENE,76,5.0,6.0,44,0.00,SCT,SCT,0.00,WeatherDisplay:10.37,2013-09-05 19:12:00,
2013-09-05 14:18:00,91.9,65.5,30.12,ENE,62,6.0,9.0,42,0.00,SCT,SCT,0.00,WeatherDisplay:10.37,2013-09-05 19:18:00,
2013-09-05 14:24:00,91.1,65.5,30.12,ENE,77,3.0,7.0,43,0.00,SCT,SCT,0.00,WeatherDisplay:10.37,2013-09-05 19:24:00,
2013-09-05 14:30:00,92.3,65.2,30.12,ENE,78,5.0,7.0,41,0.00,SCT,SCT,0.00,WeatherDisplay:10.37,2013-09-05 19:30:00,
2013-09-05 14:36:00,91.2,64.9,30.12,ESE,106,5.0,7.0,42,0.00,SCT,SCT,0.00,WeatherDisplay:10.37,2013-09-05 19:36:00,
2013-09-05 14:42:00,91.5,65.1,30.11,ENE,64,3.0,9.0,42,0.00,SCT,SCT,0.00,WeatherDisplay:10.37,2013-09-05 19:42:00,
2013-09-05 14:48:00,92.2,65.1,30.11,ENE,71,5.0,7.0,41,0.00,SCT,SCT,0.00,WeatherDisplay:10.37,2013-09-05 19:48:00,
2013-09-05 14:54:00,91.9,64.2,30.11,East,91,5.0,7.0,40,0.00,SCT,SCT,0.00,WeatherDisplay:10.37,2013-09-05 19:54:00,
2013-09-05 15:00:00,91.9,65.5,30.11,ENE,75,6.0,7.0,42,0.00,SCT,SCT,0.00,WeatherDisplay:10.37,2013-09-05 20:00:00,
2013-09-05 15:06:00,91.9,66.2,30.10,ENE,75,3.0,6.0,43,0.00,BKN,BKN,0.00,WeatherDisplay:10.37,2013-09-05 20:06:00,
2013-09-05 15:12:00,92.0,65.6,30.10,SE,127,3.0,5.0,42,0.00,BKN,BKN,0.00,WeatherDisplay:10.37,2013-09-05 20:12:00,
2013-09-05 15:18:00,92.9,66.4,30.10,NE,53,3.0,5.0,42,0.00,BKN,BKN,0.00,WeatherDisplay:10.37,2013-09-05 20:18:00,
2013-09-05 15:24:00,92.0,65.6,30.10,ENE,60,5.0,7.0,42,0.00,BKN,BKN,0.00,WeatherDisplay:10.37,2013-09-05 20:24:00,
2013-09-05 15:30:00,91.9,65.5,30.11,East,91,5.0,10.0,42,0.00,BKN,BKN,0.00,WeatherDisplay:10.37,2013-09-05 20:30:00,
2013-09-05 15:36:00,93.9,65.2,30.11,ESE,113,2.0,5.0,39,0.00,BKN,BKN,0.00,WeatherDisplay:10.37,2013-09-05 20:36:00,
2013-09-05 15:42:00,92.1,64.3,30.10,SSE,156,5.0,7.0,40,0.00,BKN,BKN,0.00,WeatherDisplay:10.37,2013-09-05 20:42:00,
2013-09-05 15:48:00,92.2,63.6,30.10,SE,132,5.0,6.0,39,0.00,BKN,BKN,0.00,WeatherDisplay:10.37,2013-09-05 20:48:00,
2013-09-05 15:54:00,91.8,63.3,30.09,ESE,113,3.0,12.0,39,0.00,BKN,BKN,0.00,WeatherDisplay:10.37,2013-09-05 20:54:00,
2013-09-05 16:00:00,93.1,65.2,30.10,SE,126,5.0,7.0,40,0.00,BKN,BKN,0.00,WeatherDisplay:10.37,2013-09-05 21:00:00,
2013-09-05 16:06:00,92.1,64.3,30.10,ESE,103,7.0,8.0,40,0.00,SCT,SCT,0.00,WeatherDisplay:10.37,2013-09-05 21:06:00,
2013-09-05 16:12:00,92.1,63.6,30.09,ENE,72,3.0,5.0,39,0.00,SCT,SCT,0.00,WeatherDisplay:10.37,2013-09-05 21:12:00,
2013-09-05 16:18:00,93.2,63.8,30.09,ESE,108,2.0,5.0,38,0.00,SCT,SCT,0.00,WeatherDisplay:10.37,2013-09-05 21:18:00,
2013-09-05 16:24:00,92.0,63.5,30.09,East,95,7.0,13.0,39,0.00,SCT,SCT,0.00,WeatherDisplay:10.37,2013-09-05 21:24:00,
2013-09-05 16:30:00,91.2,62.0,30.09,ENE,74,6.0,10.0,38,0.00,SCT,SCT,0.00,WeatherDisplay:10.37,2013-09-05 21:30:00,
2013-09-05 16:36:00,92.0,62.7,30.09,ENE,78,3.0,7.0,38,0.00,SCT,SCT,0.00,WeatherDisplay:10.37,2013-09-05 21:36:00,
2013-09-05 16:42:00,91.9,63.4,30.09,East,80,5.0,6.0,39,0.00,SCT,SCT,0.00,WeatherDisplay:10.37,2013-09-05 21:42:00,
2013-09-05 16:48:00,91.6,62.4,30.09,East,84,6.0,7.0,38,0.00,SCT,SCT,0.00,WeatherDisplay:10.37,2013-09-05 21:48:00,
2013-09-05 16:54:00,91.1,62.7,30.08,ENE,68,5.0,7.0,39,0.00,SCT,SCT,0.00,WeatherDisplay:10.37,2013-09-05 21:54:00,
2013-09-05 17:00:00,91.5,63.1,30.08,East,84,5.0,6.0,39,0.00,SCT,SCT,0.00,WeatherDisplay:10.37,2013-09-05 22:00:00,
2013-09-05 17:06:00,91.4,63.7,30.08,SE,129,3.0,5.0,40,0.00,SCT,SCT,0.00,WeatherDisplay:10.37,2013-09-05 22:06:00,
2013-09-05 17:12:00,92.1,63.5,30.08,ESE,112,2.0,6.0,39,0.00,SCT,SCT,0.00,WeatherDisplay:10.37,2013-09-05 22:12:00,
2013-09-05 17:18:00,91.2,63.5,30.08,ENE,76,3.0,4.0,40,0.00,SCT,SCT,0.00,WeatherDisplay:10.37,2013-09-05 22:18:00,
2013-09-05 17:24:00,90.6,64.4,30.08,ENE,63,2.0,4.0,42,0.00,SCT,SCT,0.00,WeatherDisplay:10.37,2013-09-05 22:24:00,
2013-09-05 17:30:00,91.1,62.7,30.08,ENE,66,2.0,4.0,39,0.00,SCT,SCT,0.00,WeatherDisplay:10.37,2013-09-05 22:30:00,
2013-09-05 17:36:00,91.1,64.1,30.08,ENE,72,5.0,7.0,41,0.00,SCT,SCT,0.00,WeatherDisplay:10.37,2013-09-05 22:36:00,
2013-09-05 17:42:00,90.1,63.3,30.07,East,93,5.0,5.0,41,0.00,SCT,SCT,0.00,WeatherDisplay:10.37,2013-09-05 22:42:00,
2013-09-05 17:48:00,90.1,63.2,30.07,ENE,66,5.0,6.0,41,0.00,SCT,SCT,0.00,WeatherDisplay:10.37,2013-09-05 22:48:00,
2013-09-05 17:54:00,90.0,64.5,30.07,NE,53,2.0,5.0,43,0.00,SCT,SCT,0.00,WeatherDisplay:10.37,2013-09-05 22:54:00,
2013-09-05 18:00:00,89.7,64.2,30.07,East,87,5.0,5.0,43,0.00,SCT,SCT,0.00,WeatherDisplay:10.37,2013-09-05 23:00:00,
2013-09-05 18:06:00,89.8,63.6,30.07,East,86,5.0,5.0,42,0.00,SCT,SCT,0.00,WeatherDisplay:10.37,2013-09-05 23:06:00,
2013-09-05 18:12:00,89.7,63.5,30.07,NE,50,3.0,6.0,42,0.00,SCT,SCT,0.00,WeatherDisplay:10.37,2013-09-05 23:12:00,
2013-09-05 18:18:00,88.9,63.5,30.07,ENE,59,5.0,6.0,43,0.00,SCT,SCT,0.00,WeatherDisplay:10.37,2013-09-05 23:18:00,
2013-09-05 18:24:00,89.0,63.6,30.07,ENE,61,3.0,8.0,43,0.00,SCT,SCT,0.00,WeatherDisplay:10.37,2013-09-05 23:24:00,
2013-09-05 18:30:00,88.8,63.4,30.07,ESE,107,3.0,6.0,43,0.00,SCT,SCT,0.00,WeatherDisplay:10.37,2013-09-05 23:30:00,
2013-09-05 18:36:00,88.3,63.0,30.07,ESE,123,6.0,8.0,43,0.00,SCT,SCT,0.00,WeatherDisplay:10.37,2013-09-05 23:36:00,
2013-09-05 18:42:00,88.7,63.3,30.07,East,89,5.0,6.0,43,0.00,SCT,SCT,0.00,WeatherDisplay:10.37,2013-09-05 23:42:00,
2013-09-05 18:48:00,87.9,63.2,30.07,ENE,57,5.0,6.0,44,0.00,SCT,SCT,0.00,WeatherDisplay:10.37,2013-09-05 23:48:00,
2013-09-05 18:54:00,87.5,63.5,30.07,ENE,77,3.0,5.0,45,0.00,SCT,SCT,0.00,WeatherDisplay:10.37,2013-09-05 23:54:00,
2013-09-05 19:00:00,86.8,62.9,30.07,ESE,103,3.0,4.0,45,0.00,SCT,SCT,0.00,WeatherDisplay:10.37,2013-09-06 00:00:00,
2013-09-05 19:06:00,87.6,63.0,30.07,ENE,78,0.0,3.0,44,0.00,FEW,FEW,0.00,WeatherDisplay:10.37,2013-09-06 00:06:00,
2013-09-05 19:12:00,86.8,62.3,30.07,ENE,68,3.0,5.0,44,0.00,FEW,FEW,0.00,WeatherDisplay:10.37,2013-09-06 00:12:00,
2013-09-05 19:18:00,87.3,62.7,30.07,ENE,70,3.0,4.0,44,0.00,FEW,FEW,0.00,WeatherDisplay:10.37,2013-09-06 00:18:00,
2013-09-05 19:24:00,86.9,61.7,30.07,ENE,67,3.0,4.0,43,0.00,FEW,FEW,0.00,WeatherDisplay:10.37,2013-09-06 00:24:00,
2013-09-05 19:30:00,86.9,61.7,30.07,ENE,73,3.0,4.0,43,0.00,FEW,FEW,0.00,WeatherDisplay:10.37,2013-09-06 00:30:00,
2013-09-05 19:36:00,86.3,61.1,30.07,ENE,69,3.0,5.0,43,0.00,FEW,FEW,0.00,WeatherDisplay:10.37,2013-09-06 00:36:00,
2013-09-05 19:42:00,85.7,61.9,30.07,East,86,5.0,8.0,45,0.00,FEW,FEW,0.00,WeatherDisplay:10.37,2013-09-06 00:42:00,
2013-09-05 19:48:00,85.3,62.1,30.07,East,92,3.0,8.0,46,0.00,FEW,FEW,0.00,WeatherDisplay:10.37,2013-09-06 00:48:00,
2013-09-05 19:54:00,84.9,63.0,30.07,ESE,105,3.0,5.0,48,0.00,FEW,FEW,0.00,WeatherDisplay:10.37,2013-09-06 00:54:00,
2013-09-05 20:00:00,84.5,62.6,30.07,East,90,2.0,5.0,48,0.00,FEW,FEW,0.00,WeatherDisplay:10.37,2013-09-06 01:00:00,
2013-09-05 20:06:00,84.2,62.9,30.07,East,96,2.0,5.0,49,0.00,FEW,FEW,0.00,WeatherDisplay:10.37,2013-09-06 01:06:00,
2013-09-05 20:12:00,83.8,62.6,30.07,ESE,107,3.0,4.0,49,0.00,FEW,FEW,0.00,WeatherDisplay:10.37,2013-09-06 01:12:00,
2013-09-05 20:18:00,83.5,62.9,30.07,ESE,104,2.0,4.0,50,0.00,FEW,FEW,0.00,WeatherDisplay:10.37,2013-09-06 01:18:00,
2013-09-05 20:24:00,83.3,63.2,30.07,East,99,3.0,6.0,51,0.00,FEW,FEW,0.00,WeatherDisplay:10.37,2013-09-06 01:24:00,
2013-09-05 20:30:00,83.0,63.0,30.07,East,81,2.0,6.0,51,0.00,FEW,FEW,0.00,WeatherDisplay:10.37,2013-09-06 01:30:00,
2013-09-05 20:36:00,82.6,63.2,30.07,East,91,3.0,5.0,52,0.00,FEW,FEW,0.00,WeatherDisplay:10.37,2013-09-06 01:36:00,
2013-09-05 20:42:00,82.4,63.0,30.07,East,94,2.0,4.0,52,0.00,FEW,FEW,0.00,WeatherDisplay:10.37,2013-09-06 01:42:00,
2013-09-05 20:48:00,82.1,62.7,30.07,East,86,1.0,3.0,52,0.00,FEW,FEW,0.00,WeatherDisplay:10.37,2013-09-06 01:48:00,
2013-09-05 20:54:00,81.9,63.1,30.07,ESE,108,1.0,4.0,53,0.00,FEW,FEW,0.00,WeatherDisplay:10.37,2013-09-06 01:54:00,
2013-09-05 21:00:00,81.7,62.9,30.07,East,84,1.0,4.0,53,0.00,FEW,FEW,0.00,WeatherDisplay:10.37,2013-09-06 02:00:00,
2013-09-05 21:06:00,81.4,63.2,30.08,East,80,0.0,3.0,54,0.00,CLR,CLR,0.00,WeatherDisplay:10.37,2013-09-06 02:06:00,
2013-09-05 21:12:00,81.2,63.5,30.08,East,80,1.0,2.0,55,0.00,CLR,CLR,0.00,WeatherDisplay:10.37,2013-09-06 02:12:00,
2013-09-05 21:18:00,81.0,63.3,30.09,ENE,68,0.0,0.0,55,0.00,CLR,CLR,0.00,WeatherDisplay:10.37,2013-09-06 02:18:00,
2013-09-05 21:24:00,81.0,63.8,30.09,East,97,0.0,0.0,56,0.00,CLR,CLR,0.00,WeatherDisplay:10.37,2013-09-06 02:24:00,
2013-09-05 21:30:00,80.6,63.9,30.09,East,89,0.0,0.0,57,0.00,CLR,CLR,0.00,WeatherDisplay:10.37,2013-09-06 02:30:00,
2013-09-05 21:36:00,80.5,63.8,30.09,East,90,0.0,0.0,57,0.00,CLR,CLR,0.00,WeatherDisplay:10.37,2013-09-06 02:36:00,
2013-09-05 21:42:00,80.3,64.1,30.08,East,93,0.0,0.0,58,0.00,CLR,CLR,0.00,WeatherDisplay:10.37,2013-09-06 02:42:00,
2013-09-05 21:48:00,80.3,64.1,30.08,East,101,0.0,0.0,58,0.00,CLR,CLR,0.00,WeatherDisplay:10.37,2013-09-06 02:48:00,
2013-09-05 21:54:00,80.3,64.1,30.09,East,97,0.0,0.0,58,0.00,CLR,CLR,0.00,WeatherDisplay:10.37,2013-09-06 02:54:00,
2013-09-05 22:00:00,80.0,63.9,30.09,SE,130,0.0,0.0,58,0.00,CLR,CLR,0.00,WeatherDisplay:10.37,2013-09-06 03:00:00,
2013-09-05 22:06:00,79.9,64.3,30.09,SE,129,0.0,0.0,59,0.00,CLR,CLR,0.00,WeatherDisplay:10.37,2013-09-06 03:06:00,
2013-09-05 22:12:00,79.7,64.1,30.09,ESE,106,0.0,0.0,59,0.00,CLR,CLR,0.00,WeatherDisplay:10.37,2013-09-06 03:12:00,
2013-09-05 22:18:00,79.6,64.0,30.09,East,96,0.0,0.0,59,0.00,CLR,CLR,0.00,WeatherDisplay:10.37,2013-09-06 03:18:00,
2013-09-05 22:24:00,79.4,64.3,30.09,SE,139,0.0,0.0,60,0.00,CLR,CLR,0.00,WeatherDisplay:10.37,2013-09-06 03:24:00,
2013-09-05 22:30:00,79.4,64.3,30.10,East,90,0.0,0.0,60,0.00,CLR,CLR,0.00,WeatherDisplay:10.37,2013-09-06 03:30:00,
2013-09-05 22:36:00,79.0,64.4,30.10,East,100,0.0,0.0,61,0.00,CLR,CLR,0.00,WeatherDisplay:10.37,2013-09-06 03:36:00,
2013-09-05 22:42:00,79.0,64.4,30.11,East,84,0.0,0.0,61,0.00,CLR,CLR,0.00,WeatherDisplay:10.37,2013-09-06 03:42:00,
2013-09-05 22:48:00,78.7,64.5,30.11,ESE,113,0.0,0.0,62,0.00,CLR,CLR,0.00,WeatherDisplay:10.37,2013-09-06 03:48:00,
2013-09-05 22:54:00,78.5,64.4,30.11,ESE,111,0.0,0.0,62,0.00,CLR,CLR,0.00,WeatherDisplay:10.37,2013-09-06 03:54:00,
2013-09-05 23:00:00,78.3,64.2,30.11,ENE,76,0.0,0.0,62,0.00,CLR,CLR,0.00,WeatherDisplay:10.37,2013-09-06 04:00:00,
2013-09-05 23:03:00,78.3,64.6,30.11,ENE,78,0.0,0.0,63,0.00,CLR,CLR,0.00,WeatherDisplay:10.37,2013-09-06 04:03:00,
2013-09-05 23:06:00,78.3,64.6,30.11,East,89,0.0,0.0,63,0.00,CLR,CLR,0.00,WeatherDisplay:10.37,2013-09-06 04:06:00,
2013-09-05 23:12:00,78.1,64.4,30.11,East,87,0.0,0.0,63,0.00,CLR,CLR,0.00,WeatherDisplay:10.37,2013-09-06 04:12:00,
2013-09-05 23:15:00,78.1,64.4,30.11,East,99,0.0,2.0,63,0.00,CLR,CLR,0.00,WeatherDisplay:10.37,2013-09-06 04:15:00,
2013-09-05 23:21:00,77.9,64.2,30.11,ESE,118,0.0,0.0,63,0.00,CLR,CLR,0.00,WeatherDisplay:10.37,2013-09-06 04:21:00,
2013-09-05 23:27:00,77.8,64.2,30.12,East,88,0.0,0.0,63,0.00,CLR,CLR,0.00,WeatherDisplay:10.37,2013-09-06 04:27:00,
2013-09-05 23:33:00,77.6,64.0,30.12,SE,125,0.0,0.0,63,0.00,CLR,CLR,0.00,WeatherDisplay:10.37,2013-09-06 04:33:00,
2013-09-05 23:39:00,77.4,64.2,30.12,SE,144,0.0,0.0,64,0.00,CLR,CLR,0.00,WeatherDisplay:10.37,2013-09-06 04:39:00,
2013-09-05 23:45:00,77.2,64.0,30.12,SE,130,0.0,0.0,64,0.00,CLR,CLR,0.00,WeatherDisplay:10.37,2013-09-06 04:45:00,
2013-09-05 23:51:00,77.0,64.3,30.12,ESE,119,0.0,0.0,65,0.00,CLR,CLR,0.00,WeatherDisplay:10.37,2013-09-06 04:51:00,
2013-09-05 23:57:00,76.9,64.2,30.12,SE,131,0.0,0.0,65,0.00,CLR,CLR,0.00,WeatherDisplay:10.37,2013-09-06 04:57:00,